sat.trackr.live / text

‹ back to catalog

STARLINK-36861

NORAD 67934 · 2026-037C

PAYLOAD ACTIVE UNKNOWN

§ Identity

Operator
Country
US
Launch date
2026-02-24
Launch site
AFETR
Launch vehicle
Mass (kg)
RCS (m²)

Purposes: comms

External: N2YO · Heavens-Above · Gunter

§ Orbital elements

Epoch: 2026-05-24T23:22:26.345856Z

Period
94.27 min
Inclination
43.0008°
Eccentricity
0.0001053
Mean motion
15.27574742 rev/d
Perigee alt
482.3 km
Apogee alt
483.8 km
Semi-major
6,861.2 km
B*
3.7076e-4
RAAN
120.2331°
Arg perigee
279.8053°
Mean anomaly
80.2680°
Rev number
1,500

§ Raw data

STARLINK-368611 67934U 26037C   26144.97391604  .00009953  00000+0  37076-3 0  99942 67934  43.0008 120.2331 0001053 279.8053  80.2680 15.27574742 15005

JSON: /api/v1/satellites/67934 · /tle

For live sub-satellite position, see the globe view (requires WebGL).

§ Visibility from observer

Set your observer location to see the next 7 days of passes ≥ 10°. The values pass through the URL so the page stays shareable.

No JS? Fill the form by hand. The geolocation button needs JavaScript.